Location: Asbacherhof
(48.8543°N, 10.7903°E)
Time: 16:44:01
(UTC+00:00)

Cosmos 2341 Rocket - Pass Details

Date: 26 May 2022
Orbit: 969 x 1004 km, 82.9° (Epoch: 06 July)

Event Time Altitude Azimuth Distance (km) Brightness Sun altitude
Rises 02:37:11 0° 347° (NNW) 3,735 7.5 -6.7°
Reaches altitude 10° 02:39:45 10° 344° (NNW) 2,784 6.8 -6.4°
Maximum altitude 02:45:59 57° 268° (W) 1,176 4.2 -5.6°
Drops below altitude 10° 02:52:11 10° 192° (SSW) 2,770 5.9 -4.9°
Sets 02:54:45 0° 188° (S) 3,715 6.6 -4.5°
